Flag Weather past 2 weeks in Kãnpur, Uttar Pradesh, India

Now
84 °F

Haze.


Feels Like: 87 °F
Forecast: 69 / 89 °F
Wind: 2 mph from North

Location: Lucknow / Amausi

Current Time: Oct 31, 2014 at 2:04:05 PM

Latest Report: Oct 31, 2014 at 1:30 PM


Visibility: 2 mi

Pressure: 29.89 "Hg

Humidity: 58%

Dew point: 68 °F

Location of KãnpurLocation

Historic Weather in Kãnpur — Graph

°F

Kãnpur temperature yesterday

Maximum temperature yesterday: 88 °F (at 3:00 PM)
Minimum temperature yesterday: 66 °F (at 5:00 AM)
Average temperature yesterday: 78 °F

Past Weeks' High & Low Weather Summary

 TemperatureHumidityPressure
High91 °F (Oct 18, 1:00 PM)100% (Oct 24, 5:00 AM)30.07 "Hg (Oct 24, 5:00 AM)
Low64 °F (Oct 18, 6:00 AM)36% (Oct 18, 1:00 PM)29.83 "Hg (Oct 19, 3:00 PM)
Average77 °F71%29.92 "Hg
* Reported Oct 16 12:30 PM — Oct 31 12:30 PM, Kãnpur, Weather by CustomWeather, © 2014

Note: Actual official high and low records may vary slightly from our data, if they occured in-between our weather recording intervals... More about our weather records

Advertising

Kãnpur weather history for previous 24 hours

 ConditionsComfort  
Time TempWeatherWind HumidityBarometerVisibility
12:30 PM
Oct 31
84 °FHaze.2 mph58%29.92 "Hg1 mi
12:00 PM84 °FHaze.2 mph58%29.95 "Hg1 mi
11:30 AM82 °FHaze.3 mph62%29.95 "Hg1 mi
11:00 AM81 °FHaze.3 mph70%29.98 "Hg1 mi
10:30 AM79 °FFog.3 mph74%29.98 "Hg1 mi
10:00 AM75 °FFog.3 mph83%29.98 "Hg1 mi
9:30 AM75 °FFog.3 mph83%29.98 "Hg1 mi
9:00 AM73 °FFog.2 mph89%29.98 "Hg1 mi
8:00 AM70 °FFog.No wind88%29.95 "Hg1 mi
7:30 AM68 °FFog.No wind94%29.95 "Hg1 mi
7:00 AM68 °FFog.No wind94%29.95 "Hg0 mi
5:00 AM70 °FFog.No wind88%29.89 "Hg1 mi
4:00 AM70 °FFog.No wind94%29.89 "Hg1 mi
3:00 AM70 °FFog.No wind94%29.86 "Hg1 mi
2:00 AM72 °FFog.No wind88%29.89 "Hg1 mi
1:00 AM72 °FFog.No wind94%29.89 "Hg1 mi
12:00 AM72 °FFog.No wind94%29.89 "Hg1 mi
11:00 PM
Oct 30
72 °FFog.No wind88%29.92 "Hg1 mi
10:00 PM73 °FFog.No wind83%29.92 "Hg1 mi
9:00 PM73 °FFog.No wind83%29.92 "Hg1 mi
8:30 PM73 °FFog.No wind83%29.89 "Hg1 mi
8:00 PM73 °FHaze.No wind78%29.89 "Hg1 mi
7:30 PM77 °FHaze.No wind74%29.89 "Hg1 mi
7:00 PM79 °FHaze.No wind70%29.86 "Hg1 mi
6:30 PM81 °FHaze.No wind70%29.86 "Hg1 mi
6:00 PM81 °FClear.No wind70%29.86 "Hg1 mi
5:30 PM82 °FClear.No wind66%29.86 "Hg1 mi
5:00 PM84 °FClear.2 mph55%29.86 "Hg2 mi
4:30 PM86 °FClear.2 mph52%29.83 "Hg2 mi
4:00 PM86 °FClear.2 mph52%29.83 "Hg2 mi
3:30 PM88 °FClear.2 mph49%29.83 "Hg2 mi
3:00 PM88 °FHaze.2 mph49%29.83 "Hg2 mi
2:00 PM86 °FHaze.2 mph55%29.86 "Hg1 mi
Weather by CustomWeather, © 2014

See weather overviewHow to use our weather pages